SCP
1 1 1 1 1 0 0 0 0 0 0 0 1 1 0 0 0 0 0 0 1 1 1 0 0 0 1 1 1 0 0 0 0 0 0 0 1 1 1 1 1 1 1
1 1 1 1 1 1 1 0 0 0 0 0 0 0 0 0 0 0 0 0 0 1 1 1 1 0 0 1 1 0 0 0 0 0 0 0 0 1 1 1 1 1 1
1 1 1 1 1 1 1 1 0 0 0 0 0 0 0 0 0 0 0 0 0 0 1 1 1 0 0 1 1 0 0 0 0 0 0 0 0 1 1 1 1 1 1
1 1 1 1 1 1 1 1 1 1 0 0 0 0 0 0 0 0 0 0 0 0 0 1 0 0 0 0 0 0 0 0 0 0 0 0 0 1 1 1 1 1 1
1 1 1 1 1 1 1 1 1 1 1 0 0 0 0 0 0 0 0 0 0 0 0 0 0 0 0 1 1 1 1 1 0 0 0 0 0 0 0 0 0 1 1
1 1 1 1 1 1 1 1 1 1 1 1 1 0 0 0 0 0 0 0 0 0 0 0 0 0 0 0 1 1 1 1 0 0 0 0 0 0 0 0 0 0 1
1 1 1 1 1 1 1 1 1 1 0 0 0 0 0 0 0 0 0 0 0 0 0 0 0 0 0 0 0 1 1 1 0 0 0 0 0 0 0 0 0 0 1
1 1 1 1 1 1 1 1 1 0 0 0 0 0 0 0 0 0 0 0 0 0 0 1 1 1 0 0 0 1 1 1 0 0 0 0 0 0 0 0 0 1 1
1 1 1 1 1 1 1 1 1 1 0 0 0 0 0 0 0 0 0 1 1 1 1 1 1 1 1 1 1 1 1 1 0 0 0 0 1 1 0 0 1 1 1
1 1 1 1 1 1 1 1 1 1 1 1 0 0 0 0 0 0 1 1 1 1 1 0 1 1 1 1 1 1 1 0 0 0 0 1 1 1 0 1 1 1 1
1 0 0 1 1 1 1 1 1 1 1 1 1 0 0 0 0 1 1 1 1 1 1 1 1 1 1 1 1 1 0 0 0 0 0 1 1 1 0 1 1 1 0
1 0 0 0 0 1 1 1 1 1 1 1 0 0 0 0 0 0 1 1 1 1 1 1 1 1 1 0 0 0 0 0 0 0 1 1 1 1 0 0 0 0 0
1 1 0 0 0 1 1 1 1 1 1 1 0 0 0 0 0 0 0 0 0 0 0 1 1 1 0 0 0 0 0 0 0 0 1 1 1 1 0 0 0 0 0
1 1 1 1 0 1 1 1 1 1 1 1 1 0 0 0 0 0 0 0 0 0 0 0 0 0 0 0 0 0 0 0 0 0 0 1 1 1 0 0 0 0 1
1 1 1 1 1 1 1 1 1 1 1 1 1 0 0 0 0 0 0 0 0 0 0 0 0 0 1 1 1 1 1 0 0 0 0 1 1 1 1 1 1 1 1
2 1 1 1 1 1 1 1 1 1 1 1 0 0 0 0 0 0 0 0 0 0 0 0 0 1 1 1 1 1 1 1 1 0 0 1 1 1 1 1 1 1 1
2 2 1 1 1 1 1 1 1 1 1 1 0 0 0 0 0 0 0 0 0 0 0 0 0 1 1 1 1 1 1 1 1 1 1 1 1 1 1 1 1 1 1
2 2 2 1 1 1 1 1 1 1 1 1 1 0 0 0 0 0 0 0 0 0 0 0 0 1 1 1 1 1 1 1 1 1 1 1 1 1 1 1 1 1 1
1 2 2 2 1 1 1 1 1 1 1 1 1 0 0 1 1 1 1 1 0 0 1 1 1 1 1 1 1 1 1 1 1 1 1 1 1 0 0 0 1 1 1
1 1 2 2 2 2 2 1 1 1 1 1 1 1 0 1 1 1 1 1 1 1 1 1 1 1 1 1 1 0 0 0 1 1 1 1 0 0 0 0 0 0 0
1 1 1 1 2 2 2 2 1 1 1 1 1 1 0 0 1 1 1 1 1 1 1 1 1 1 1 1 0 0 0 0 0 1 1 0 0 0 0 0 0 0 0
1 1 1 1 2 2 3 2 2 2 1 1 1 1 1 0 1 1 1 1 1 1 1 1 1 1 1 1 0 0 0 0 0 0 0 0 0 0 0 0 0 0 0
2 1 1 1 1 2 3 3 2 2 2 1 1 1 1 0 0 0 1 1 1 0 1 1 1 1 1 1 1 1 1 0 0 0 0 0 0 0 0 0 0 0 0
2 2 2 2 1 2 3 3 3 2 2 2 1 1 1 0 0 0 0 0 0 0 1 1 1 1 1 1 1 1 1 1 1 0 0 0 1 0 0 0 0 0 0
2 2 2 2 2 2 3 3 3 2 2 2 1 1 1 1 0 0 0 0 0 0 1 1 1 1 1 1 1 1 1 1 1 0 0 0 0 0 0 0 0 0 0
3 3 3 3 2 2 3 3 3 2 2 2 2 1 1 1 0 0 0 1 1 0 1 1 1 1 1 1 1 2 2 1 1 1 0 0 0 0 0 0 0 0 0
Wind_Speed
6 9 9 9 9 9 9 9 9 9 10 10 10 9 9 9 9 8 8 8 8 9 8 9 9 9 9 9 9 9 8 8 7 7 7 7 7 7 6 6 5 5 7
8 10 10 9 9 8 8 9 9 9 9 10 9 9 9 9 8 8 7 8 8 9 9 8 9 9 9 9 9 8 8 7 6 5 5 6 7 7 7 7 7 5 7
9 11 9 9 8 8 8 8 8 9 9 9 8 8 8 8 8 8 7 7 8 8 8 8 9 9 9 9 8 8 7 6 5 4 2 3 5 7 7 7 7 7 7
9 10 9 8 8 8 9 9 8 8 8 8 8 8 8 8 8 7 7 7 8 8 8 9 9 9 8 8 7 7 6 6 6 5 3 4 5 8 8 7 7 7 7
9 10 9 9 8 8 8 8 8 8 8 8 7 7 7 7 7 7 7 7 8 8 8 9 9 8 7 7 7 6 6 6 7 5 5 6 5 8 9 8 7 7 7
8 10 9 9 8 7 7 7 7 7 7 7 7 7 7 6 6 6 7 7 8 8 8 8 8 8 7 7 7 6 6 6 6 4 5 5 5 8 9 9 8 8 7
7 9 10 9 8 7 7 6 6 6 6 6 7 7 6 6 6 7 7 7 7 8 8 8 8 8 7 7 6 6 6 5 3 4 5 5 6 10 10 10 9 8 8
6 8 9 9 8 7 7 6 5 5 5 5 6 5 5 5 6 7 7 7 7 8 8 8 8 8 7 6 6 6 7 7 5 7 6 5 9 10 10 10 9 9 9
5 6 7 7 8 8 7 6 5 5 4 4 4 4 4 4 5 6 6 7 7 7 7 7 7 7 7 6 5 5 7 7 5 4 7 5 10 11 11 10 10 10 10
4 5 5 5 5 6 6 6 6 5 4 3 3 3 3 4 4 6 7 7 7 7 7 6 5 5 5 4 3 4 5 6 5 6 4 6 11 11 11 11 11 11 12
5 3 3 4 4 4 4 6 6 5 4 4 4 4 3 2 3 4 7 7 7 6 5 4 3 3 3 2 2 3 3 2 5 5 4 9 11 11 11 11 11 11 12
4 3 3 3 4 3 3 4 2 3 3 3 2 3 1 2 3 5 7 7 6 5 4 3 1 1 1 0 1 1 2 4 4 4 5 10 11 11 11 11 11 11 11
5 4 3 3 3 3 3 2 1 1 1 1 2 2 2 2 3 3 2 3 2 3 1 2 1 1 1 1 2 2 3 4 4 4 6 10 11 11 10 10 11 11 11
5 4 3 3 3 4 4 2 2 1 1 1 1 2 2 1 2 2 2 2 1 1 1 1 1 2 3 3 3 4 5 4 4 4 5 11 10 10 11 11 11 11 11
5 4 4 3 4 3 3 1 3 2 2 2 1 2 3 2 2 2 2 2 2 1 1 2 2 3 4 5 5 6 5 6 6 5 4 10 11 12 12 11 12 11 11
5 5 4 3 4 4 3 2 3 2 2 2 2 2 2 2 2 2 3 2 2 2 2 2 3 3 3 4 5 5 5 5 5 5 4 7 12 12 12 13 12 12 12
5 5 5 3 4 4 4 3 3 3 3 2 2 2 3 3 3 3 2 2 2 2 3 3 3 3 3 4 4 4 4 4 4 5 5 4 5 10 12 12 12 12 12
4 6 5 4 4 4 4 3 3 3 3 2 2 2 3 3 4 3 2 2 2 2 3 3 2 3 3 3 3 3 3 3 4 4 3 4 4 5 8 11 12 11 12
4 5 5 4 4 4 4 3 3 3 3 2 2 2 3 3 4 3 2 2 2 2 2 2 2 2 2 2 3 3 3 3 3 3 3 5 5 5 4 8 11 10 11
3 4 5 5 4 4 3 3 3 3 3 3 3 2 3 3 4 3 2 2 3 3 3 3 3 2 2 2 3 3 2 2 2 3 3 3 4 5 5 5 4 6 10
3 3 5 5 3 3 2 2 2 2 2 2 2 3 3 3 3 3 2 3 2 2 2 3 2 2 1 1 2 2 2 2 3 3 2 2 3 4 4 4 3 3 4
3 2 4 4 3 4 2 2 2 2 1 2 2 2 1 2 2 3 3 2 2 2 2 2 2 1 0 0 1 1 1 2 3 2 2 2 3 3 4 5 4 4 4
3 2 3 4 3 3 3 2 2 2 2 2 1 1 1 2 2 2 3 2 2 2 2 1 1 1 1 1 0 1 2 1 0 1 1 2 3 3 3 3 4 5 6
3 2 2 3 3 3 3 2 2 2 1 1 1 1 1 2 2 1 2 2 1 1 2 1 1 1 1 0 1 1 1 3 2 1 1 2 2 3 3 3 4 5 5
3 2 2 3 3 3 3 3 2 2 1 1 1 2 2 2 2 2 2 1 1 1 1 1 1 0 0 0 0 0 1 1 1 3 1 1 2 2 2 2 3 4 4
3 3 2 2 2 2 2 2 2 2 2 2 1 1 2 1 1 1 1 1 1 1 1 1 1 1 0 0 0 1 1 1 1 2 2 2 1 1 1 2 3 3 4
Wind_Direction
95 96 87 76 71 67 66 64 64 68 67 65 61 60 61 64 66 62 60 59 59 60 61 60 58 56 58 59 59 58 58 60 71 79 82 81 75 68 63 56 60 73 75
100 101 90 78 74 72 70 70 69 70 68 66 62 60 63 66 67 66 64 65 65 65 64 63 63 60 59 59 58 58 58 58 66 76 90 86 78 71 64 60 59 67 70
100 105 92 78 75 74 71 70 71 71 70 68 66 64 65 68 68 68 67 67 68 68 66 66 65 64 62 60 57 56 54 46 40 37 71 99 85 72 68 65 68 69 68
95 94 91 86 77 75 74 70 67 72 71 69 68 68 66 69 71 70 70 70 69 69 69 67 65 64 62 58 54 51 43 30 25 29 48 65 73 75 71 66 70 71 68
92 97 98 94 84 79 75 72 70 71 73 71 71 72 70 68 71 72 72 71 71 70 69 69 67 66 63 59 51 42 30 24 28 35 54 63 64 72 68 67 67 68 68
98 103 110 105 97 89 81 75 73 73 73 75 77 76 75 71 69 71 70 71 73 72 72 71 68 65 61 58 49 35 27 31 30 47 57 68 69 73 71 68 64 64 66
97 108 118 119 116 110 97 84 78 78 76 77 78 77 75 73 72 74 72 72 76 76 74 72 68 65 63 57 46 32 24 31 47 61 59 63 69 73 73 69 64 62 62
100 111 122 132 133 128 112 100 94 91 86 82 81 80 80 83 84 81 77 77 82 80 78 74 69 68 68 58 46 36 29 22 60 73 66 66 74 74 75 71 67 66 63
98 113 131 143 147 144 131 124 120 113 108 102 97 94 95 94 96 95 88 84 86 86 84 80 75 74 71 60 49 36 29 28 36 51 67 64 72 73 74 72 69 67 64
98 99 114 129 139 147 148 147 147 139 139 141 137 137 128 123 121 106 98 92 91 92 92 88 83 84 80 69 46 26 26 30 47 57 55 68 71 73 75 74 73 71 68
81 85 105 115 117 124 140 142 156 159 170 175 177 178 164 144 133 117 104 105 102 101 102 100 94 95 93 81 40 37 26 65 69 63 52 72 73 73 75 78 77 75 72
99 85 85 98 102 101 101 122 146 148 163 182 154 156 160 101 99 104 115 117 120 119 125 128 144 168 236 193 79 49 52 67 69 69 62 71 74 75 75 77 76 76 75
97 84 69 85 100 104 95 104 98 93 129 127 107 121 115 102 112 114 127 130 141 147 168 154 203 227 145 83 74 78 63 63 66 64 59 68 74 76 77 78 77 76 76
93 90 71 75 82 86 93 97 101 86 80 87 110 108 99 94 96 108 113 124 119 102 59 74 60 49 46 66 72 73 71 73 75 75 62 65 73 76 80 80 79 76 76
106 97 76 63 78 85 96 108 103 97 77 91 75 89 103 104 102 102 99 88 81 74 53 47 45 52 41 41 54 61 65 73 82 81 70 67 71 74 77 78 78 78 76
114 103 87 72 69 72 72 76 93 94 86 73 67 63 96 105 97 89 84 74 67 75 67 62 55 57 57 53 52 54 58 68 85 94 92 72 69 70 74 75 75 75 77
117 109 99 88 76 75 73 61 76 75 72 66 67 49 62 70 89 90 87 82 67 70 69 54 50 43 63 71 63 55 55 55 71 89 98 99 81 70 71 73 72 73 79
106 106 101 87 83 75 71 69 64 74 77 64 60 37 53 71 81 84 80 79 75 76 79 70 55 50 54 62 65 55 59 48 55 76 87 100 99 90 77 79 77 74 81
105 108 109 94 88 84 77 79 63 65 67 66 59 42 41 57 78 90 84 85 74 74 73 77 67 64 68 71 79 64 58 53 48 62 70 88 100 102 97 84 79 76 77
93 105 107 96 87 94 88 87 79 68 62 61 62 48 47 49 63 81 84 82 80 77 71 69 71 58 64 64 76 74 67 66 55 51 54 70 92 101 103 102 90 75 74
86 98 106 108 106 99 87 85 89 79 74 72 77 59 49 56 57 69 71 69 77 89 101 97 89 80 65 81 79 63 44 56 67 67 57 62 81 90 97 98 96 91 83
117 121 117 112 107 101 94 98 114 118 110 104 90 90 75 68 67 82 78 75 77 79 76 75 84 91 52 80 115 110 69 31 22 53 65 70 77 80 88 95 92 87 86
128 132 125 115 110 111 114 102 93 94 84 84 93 92 97 85 69 69 94 98 96 90 90 100 111 119 148 300 60 124 134 146 53 14 46 74 79 75 78 86 91 90 89
133 137 127 124 121 115 120 115 116 118 121 129 131 134 131 120 107 88 92 103 112 120 126 163 150 172 141 221 321 348 113 133 136 103 5 47 74 74 69 74 80 85 90
112 110 106 99 103 105 112 122 130 120 134 125 122 131 124 118 119 114 106 118 140 130 156 163 113 94 118 191 186 55 46 55 118 132 138 49 50 58 76 82 89 92 91
98 92 91 98 102 105 117 140 138 138 155 141 142 132 119 113 130 141 148 161 183 168 172 154 133 113 59 280 103 120 135 136 148 137 148 150 113 66 69 82 99 101 101